FW7227 Weather Reports


Display with metric or nautical units.
time (UTC)temp
F
wind
direction
speed
MPH
gust
MPH
rain 1hr
in
rain 24hr
in
rain mn
in
humidity
%
barometer
mb
20260905212058 57 287 6.0 11.0 0.00 0.09 0.09 77 1023.1
20260905211604 57 264 5.0 11.0 0.00 0.09 0.09 77 1023.1
20260905211057 57 360 6.0 12.0 0.00 0.09 0.09 77 1023.0
20260905210556 57 360 5.0 13.0 0.00 0.09 0.09 77 1022.9
20260905205558 57 360 7.0 12.0 0.00 0.09 0.09 77 1022.9
20260905205058 57 262 5.0 12.0 0.00 0.09 0.09 77 1022.8
20260905204606 57 276 6.0 12.0 0.00 0.09 0.09 77 1022.7
20260905204057 58 252 6.0 13.0 0.00 0.09 0.09 77 1022.7
20260905203559 58 360 5.0 13.0 0.00 0.09 0.09 77 1022.6
20260905203106 58 360 6.0 13.0 0.00 0.09 0.09 76 1022.7
20260905202600 58 279 4.0 14.0 0.00 0.09 0.09 76 1022.6
20260905202100 58 288 6.0 14.0 0.00 0.09 0.09 75 1022.5
20260905201613 58 257 6.0 13.0 0.00 0.09 0.09 75 1022.6
20260905201058 58 259 7.0 13.0 0.00 0.09 0.09 75 1022.5
20260905200557 58 281 6.0 13.0 0.00 0.09 0.09 75 1022.5
20260905200104 58 259 7.0 13.0 0.00 0.09 0.09 75 1022.6
20260905195556 59 263 8.0 12.0 0.00 0.09 0.09 75 1022.5
20260905195057 59 270 7.0 12.0 0.00 0.09 0.09 76 1022.4
20260905194607 59 360 5.0 12.0 0.00 0.09 0.09 75 1022.4
20260905194100 59 360 7.0 14.0 0.00 0.09 0.09 75 1022.4
20260905193559 59 360 6.0 14.0 0.00 0.09 0.09 75 1022.3
20260905193104 59 360 8.0 14.0 0.00 0.09 0.09 75 1022.2
20260905192558 59 360 5.0 12.0 0.00 0.09 0.09 75 1022.1
20260905192057 59 360 6.0 12.0 0.00 0.09 0.09 74 1022.1
20260905191610 59 360 7.0 13.0 0.00 0.09 0.09 74 1022.0
20260905191057 59 360 6.0 14.0 0.00 0.09 0.09 74 1021.9
20260905190556 60 360 6.0 14.0 0.00 0.09 0.09 74 1021.8
20260905190132 60 360 7.0 13.0 0.00 0.09 0.09 74 1021.8
20260905185556 60 360 7.0 13.0 0.00 0.09 0.09 74 1021.8
20260905185058 60 360 7.0 13.0 0.00 0.09 0.09 75 1021.8
20260905184620 60 360 7.0 13.0 0.00 0.09 0.09 74 1021.7
20260905184101 60 360 5.0 14.0 0.00 0.09 0.09 74 1021.6
20260905183559 60 360 7.0 14.0 0.00 0.09 0.09 74 1021.5
20260905183109 60 360 6.0 11.0 0.00 0.09 0.09 74 1021.4
20260905182557 60 360 5.0 14.0 0.00 0.09 0.09 73 1021.4
20260905182058 61 360 5.0 14.0 0.00 0.09 0.09 72 1021.2
20260905181603 61 360 6.0 15.0 0.00 0.09 0.09 71 1021.0
20260905181057 61 360 9.0 15.0 0.00 0.09 0.09 71 1020.9
20260905180557 61 360 6.0 16.0 0.00 0.09 0.09 71 1020.9
20260905180100 61 360 6.0 16.0 0.00 0.09 0.09 71 1020.9
20260905175557 62 360 7.0 16.0 0.00 0.13 0.09 71 1020.8
20260905175057 62 360 7.0 14.0 0.00 0.13 0.09 71 1020.8
20260905174603 62 360 7.0 14.0 0.00 0.13 0.09 71 1020.7
20260905174057 62 360 6.0 16.0 0.00 0.13 0.09 72 1020.7
20260905173601 62 360 7.0 16.0 0.00 0.13 0.09 72 1020.6
20260905173109 62 360 6.0 14.0 0.00 0.13 0.09 73 1020.6
20260905172559 62 360 5.0 11.0 0.00 0.13 0.09 74 1020.5
20260905172100 62 360 4.0 10.0 0.00 0.13 0.09 74 1020.5
20260905171603 62 360 3.0 13.0 0.00 0.13 0.09 74 1020.4
20260905171057 62 360 4.0 13.0 0.00 0.13 0.09 74 1020.4
20260905170557 62 360 7.0 13.0 0.00 0.13 0.09 75 1020.3
20260905170113 62 360 5.0 14.0 0.00 0.13 0.09 76 1020.1
20260905165557 62 360 6.0 14.0 0.00 0.32 0.09 75 1020.1
20260905165059 62 360 6.0 14.0 0.00 0.32 0.09 76 1020.0
20260905164559 62 360 5.0 18.0 0.00 0.32 0.09 76 1020.0
20260905164057 62 360 7.0 18.0 0.00 0.32 0.09 76 1020.0
20260905163557 62 360 7.0 15.0 0.00 0.32 0.09 76 1019.9
20260905163105 62 360 7.0 15.0 0.00 0.32 0.09 77 1019.8
20260905162558 61 360 6.0 17.0 0.00 0.32 0.09 79 1019.8
20260905162058 61 360 7.0 20.0 0.00 0.32 0.09 80 1019.7
20260905161604 61 360 6.0 20.0 0.00 0.32 0.09 80 1019.6
20260905161057 61 360 10.0 20.0 0.00 0.32 0.09 79 1019.5
20260905160556 62 360 9.0 20.0 0.00 0.32 0.09 78 1019.6
20260905160100 63 360 10.0 20.0 0.00 0.31 0.08 75 1019.5
20260905155556 64 360 6.0 16.0 0.00 0.43 0.08 74 1019.4
20260905155056 64 360 6.0 17.0 0.00 0.43 0.08 73 1019.3
20260905154558 64 360 8.0 17.0 0.00 0.43 0.08 72 1019.3
20260905154058 64 360 8.0 17.0 0.00 0.43 0.08 72 1019.2
20260905153558 64 295 6.0 14.0 0.00 0.43 0.08 74 1019.1
20260905153104 65 360 7.0 15.0 0.00 0.43 0.08 72 1019.1
20260905152556 65 360 7.0 15.0 0.00 0.43 0.08 72 1019.1
20260905152057 64 360 9.0 14.0 0.00 0.43 0.08 74 1019.0
20260905151603 63 360 5.0 16.0 0.00 0.43 0.08 75 1019.0
20260905151057 63 360 7.0 17.0 0.00 0.43 0.08 75 1018.8
20260905150556 63 360 10.0 21.0 0.00 0.43 0.08 74 1018.8
20260905150058 64 360 10.0 21.0 0.00 0.43 0.08 74 1018.8
20260905145557 63 360 11.0 22.0 0.00 0.49 0.08 73 1018.7
20260905145056 64 360 12.0 22.0 0.00 0.49 0.08 72 1018.7
20260905144602 64 277 10.0 25.0 0.00 0.49 0.08 71 1018.6
20260905144057 64 269 12.0 26.0 0.00 0.49 0.08 71 1018.6
20260905143556 64 277 13.0 26.0 0.00 0.49 0.08 70 1018.4
20260905143103 65 234 11.0 24.0 0.00 0.49 0.08 71 1018.4
20260905142600 66 360 12.0 29.0 0.00 0.49 0.08 70 1018.3
20260905142057 65 360 11.0 29.0 0.00 0.49 0.08 71 1018.1
20260905141629 66 360 15.0 29.0 0.00 0.49 0.08 70 1018.1
20260905141059 66 263 14.0 22.0 0.00 0.49 0.08 72 1018.1
20260905140600 65 250 10.0 21.0 0.00 0.49 0.08 74 1018.1
20260905140058 65 281 12.0 25.0 0.00 0.49 0.08 73 1018.2
20260905135558 65 360 14.0 25.0 0.00 0.63 0.08 74 1018.1
20260905135056 65 360 9.0 27.0 0.00 0.63 0.08 77 1018.2
20260905134603 64 360 14.0 27.0 0.02 0.63 0.08 76 1018.2
20260905134056 64 360 15.0 25.0 0.03 0.63 0.08 77 1018.2
20260905133557 64 360 12.0 25.0 0.07 0.63 0.08 78 1018.2
20260905133059 63 360 10.0 22.0 0.07 0.63 0.08 80 1018.3
20260905132557 63 360 13.0 22.0 0.07 0.63 0.08 82 1018.2
20260905132057 62 360 10.0 22.0 0.08 0.63 0.08 83 1018.1
20260905131632 62 360 11.0 21.0 0.08 0.63 0.08 85 1018.1
20260905131058 61 360 10.0 19.0 0.08 0.63 0.08 86 1018.1
20260905130558 60 360 8.0 15.0 0.08 0.63 0.08 87 1018.1
20260905130108 60 360 8.0 15.0 0.08 0.63 0.08 88 1018.2
20260905125556 60 360 7.0 21.0 0.08 0.63 0.08 89 1018.1
20260905125056 60 360 7.0 21.0 0.08 0.63 0.08 89 1018.1
20260905124607 60 360 9.0 21.0 0.06 0.61 0.06 86 1018.3
20260905124056 60 360 5.0 14.0 0.05 0.60 0.05 86 1018.1
20260905123556 61 360 5.0 15.0 0.01 0.56 0.01 81 1018.0
20260905123111 62 360 9.0 17.0 0.01 0.56 0.01 79 1017.7
20260905122557 62 360 8.0 17.0 0.00 0.55 0.00 77 1017.7
20260905122056 63 360 5.0 20.0 0.00 0.55 0.00 74 1017.5
20260905121558 64 360 11.0 20.0 0.00 0.55 0.00 71 1017.5
20260905121057 65 360 12.0 20.0 0.00 0.55 0.00 68 1017.3
20260905120557 65 360 11.0 19.0 0.00 0.55 0.00 68 1017.2
20260905120107 66 360 10.0 19.0 0.00 0.55 0.00 67 1017.2
20260905115556 67 258 10.0 20.0 0.00 0.55 0.00 67 1017.2
20260905115056 66 360 9.0 20.0 0.00 0.55 0.00 69 1017.2
20260905114606 65 360 10.0 20.0 0.00 0.55 0.00 71 1017.3
20260905114057 65 288 9.0 16.0 0.00 0.55 0.00 73 1017.3
20260905113558 64 233 8.0 17.0 0.00 0.55 0.00 74 1017.4
20260905113110 65 259 9.0 20.0 0.00 0.55 0.00 71 1017.4
20260905112557 65 256 12.0 20.0 0.00 0.55 0.00 70 1017.1
20260905112056 66 298 11.0 20.0 0.00 0.55 0.00 66 1017.1
20260905111606 66 236 10.0 20.0 0.00 0.55 0.00 66 1017.0
20260905111056 65 280 10.0 20.0 0.00 0.55 0.00 67 1017.2
20260905110557 65 281 11.0 26.0 0.00 0.55 0.00 67 1017.1
20260905110104 66 301 11.0 26.0 0.00 0.55 0.00 66 1017.0
20260905105556 66 239 9.0 24.0 0.00 0.55 0.00 67 1017.0
20260905105058 66 298 10.0 23.0 0.00 0.55 0.00 67 1017.1
20260905104604 66 240 10.0 23.0 0.00 0.55 0.00 66 1017.1
20260905104057 66 263 12.0 23.0 0.00 0.55 0.00 66 1017.2
20260905103558 66 242 14.0 21.0 0.00 0.55 0.00 66 1017.1
20260905103102 66 241 9.0 17.0 0.00 0.55 0.00 67 1017.1
20260905102556 66 244 9.0 22.0 0.00 0.55 0.00 67 1017.1
20260905102058 66 233 13.0 22.0 0.00 0.55 0.00 66 1017.1
20260905101622 66 238 14.0 21.0 0.00 0.55 0.00 67 1017.0
20260905101059 66 246 12.0 22.0 0.00 0.55 0.00 67 1017.1
20260905100557 66 279 11.0 22.0 0.00 0.55 0.00 67 1017.0
20260905100059 66 230 13.0 22.0 0.00 0.55 0.00 67 1017.0
20260905095557 66 246 10.0 21.0 0.00 0.55 0.00 67 1017.0
20260905095056 66 246 10.0 21.0 0.00 0.55 0.00 67 1016.8
20260905094607 66 252 12.0 24.0 0.00 0.55 0.00 67 1017.0
20260905094056 66 242 11.0 25.0 0.00 0.55 0.00 69 1017.0
20260905093556 66 238 14.0 25.0 0.00 0.55 0.00 68 1017.0
20260905093103 65 234 10.0 24.0 0.00 0.55 0.00 72 1016.9
20260905092556 65 270 10.0 24.0 0.00 0.55 0.00 70 1016.9
20260905092055 65 258 13.0 22.0 0.00 0.55 0.00 71 1016.9
20260905091629 65 246 13.0 22.0 0.00 0.55 0.00 71 1016.8
20260905091056 64 249 7.0 22.0 0.00 0.55 0.00 73 1016.7
20260905090556 64 234 11.0 22.0 0.00 0.55 0.00 73 1016.6
20260905085557 63 259 8.0 24.0 0.00 0.55 0.00 76 1016.7
20260905085057 63 292 10.0 24.0 0.00 0.55 0.00 76 1016.8
20260905084619 63 242 12.0 23.0 0.00 0.55 0.00 75 1016.9
20260905084056 63 257 11.0 22.0 0.00 0.55 0.00 75 1016.9
20260905083556 63 286 10.0 20.0 0.00 0.55 0.00 74 1016.8
20260905083101 63 272 9.0 23.0 0.00 0.55 0.00 74 1016.7
20260905082557 64 279 10.0 23.0 0.00 0.55 0.00 73 1016.5
20260905082056 64 252 10.0 20.0 0.00 0.55 0.00 74 1016.4
20260905081559 64 224 9.0 19.0 0.00 0.55 0.00 74 1016.4
20260905081057 64 239 10.0 22.0 0.00 0.55 0.00 76 1016.4
20260905080556 63 263 11.0 22.0 0.00 0.55 0.00 76 1016.4
20260905080109 63 265 12.0 22.0 0.00 0.55 0.00 76 1016.3
20260905075559 63 268 11.0 21.0 0.00 0.55 0.00 76 1016.3
20260905075057 63 282 8.0 19.0 0.00 0.55 0.00 77 1016.2
20260905074601 62 255 9.0 19.0 0.00 0.55 0.00 77 1016.3
20260905074056 62 262 10.0 18.0 0.00 0.55 0.00 77 1016.2
20260905073556 62 252 8.0 18.0 0.00 0.55 0.00 78 1016.2
20260905073100 62 285 6.0 19.0 0.00 0.55 0.00 79 1016.1
20260905072558 62 272 10.0 19.0 0.00 0.55 0.00 78 1016.1
20260905072057 62 252 9.0 19.0 0.00 0.55 0.00 79 1016.0
20260905071605 61 246 8.0 16.0 0.00 0.55 0.00 80 1015.9
20260905071058 61 240 8.0 16.0 0.00 0.55 0.00 80 1016.0
20260905070556 61 279 8.0 16.0 0.00 0.55 0.00 81 1015.9
20260905070106 60 238 7.0 15.0 0.00 0.55 0.00 82 1015.7
20260905065556 60 248 9.0 15.0 0.00 0.55 0.00 82 1015.8
20260905065056 60 262 7.0 16.0 0.00 0.55 0.00 82 1015.8
20260905064559 60 234 9.0 17.0 0.00 0.55 0.00 83 1015.7
20260905064058 59 226 7.0 18.0 0.00 0.55 0.00 83 1015.6
20260905063557 59 240 8.0 18.0 0.00 0.55 0.00 84 1015.6
20260905063059 59 254 8.0 18.0 0.00 0.55 0.00 85 1015.5
20260905062557 58 234 7.0 18.0 0.00 0.55 0.00 85 1015.5
20260905062058 58 259 8.0 18.0 0.00 0.55 0.00 85 1015.5
20260905061618 57 221 5.0 12.0 0.00 0.55 0.00 86 1015.5
20260905061057 57 236 4.0 11.0 0.00 0.55 0.00 87 1015.5
20260905060557 57 239 5.0 13.0 0.00 0.55 0.00 87 1015.4
20260905060107 57 266 6.0 13.0 0.00 0.55 0.00 87 1015.4
20260905055558 57 236 7.0 12.0 0.00 0.55 0.00 87 1015.5
20260905055057 56 237 6.0 13.0 0.00 0.55 0.00 87 1015.5
20260905054605 56 240 5.0 13.0 0.00 0.55 0.00 88 1015.4
20260905054058 56 239 7.0 15.0 0.00 0.55 0.00 88 1015.4
20260905053558 56 238 5.0 15.0 0.00 0.55 0.00 88 1015.4
20260905053113 56 247 4.0 12.0 0.00 0.55 0.00 88 1015.4
20260905052558 56 248 7.0 12.0 0.00 0.55 0.00 88 1015.3
20260905052058 56 247 6.0 12.0 0.00 0.55 0.00 88 1015.3
20260905051605 56 254 6.0 11.0 0.00 0.55 0.00 88 1015.2
20260905051057 56 245 6.0 11.0 0.00 0.55 0.00 88 1015.2
20260905050558 56 246 6.0 11.0 0.00 0.55 0.00 88 1015.1
20260905050059 56 232 6.0 10.0 0.00 0.55 0.00 88 1015.1
20260905045557 56 246 4.0 10.0 0.00 0.55 0.00 88 1015.0
20260905045057 56 240 6.0 10.0 0.00 0.55 0.00 88 1015.0
20260905044605 56 238 5.0 11.0 0.00 0.55 0.00 87 1015.0
20260905044058 56 242 5.0 11.0 0.00 0.55 0.00 87 1015.0
20260905043558 56 240 5.0 11.0 0.00 0.55 0.00 87 1015.0
20260905043100 56 250 6.0 13.0 0.00 0.55 0.00 87 1014.9
20260905042601 57 229 7.0 14.0 0.00 0.55 0.00 87 1014.9
20260905042058 57 223 6.0 14.0 0.00 0.55 0.00 87 1014.9
20260905041611 57 269 6.0 14.0 0.00 0.55 0.00 87 1014.7
20260905041058 57 217 5.0 14.0 0.00 0.55 0.00 87 1014.7
20260905040557 57 251 6.0 13.0 0.00 0.55 0.00 87 1014.7
20260905040105 57 243 6.0 13.0 0.00 0.55 0.00 87 1014.7
20260905035558 57 246 8.0 13.0 0.00 0.55 0.00 87 1014.7
20260905035057 57 261 6.0 14.0 0.00 0.55 0.00 87 1014.7
20260905034602 57 264 5.0 14.0 0.00 0.55 0.00 87 1014.7
20260905034057 57 259 6.0 16.0 0.00 0.55 0.00 87 1014.6
20260905033558 57 251 6.0 16.0 0.00 0.55 0.00 87 1014.4
20260905033101 57 237 8.0 14.0 0.00 0.55 0.00 87 1014.4
20260905032558 57 243 7.0 14.0 0.00 0.55 0.00 87 1014.4
20260905032101 57 230 6.0 14.0 0.00 0.55 0.00 87 1014.4
20260905031604 57 255 8.0 14.0 0.00 0.55 0.00 87 1014.3
20260905031057 57 230 8.0 14.0 0.00 0.55 0.00 87 1014.3
20260905030557 57 239 6.0 15.0 0.00 0.55 0.00 86 1014.3
20260905030107 57 252 6.0 15.0 0.00 0.55 0.00 86 1014.2
20260905025558 57 266 6.0 14.0 0.00 0.55 0.00 86 1014.2
20260905025057 57 239 7.0 15.0 0.00 0.55 0.00 86 1014.2
20260905024640 57 248 6.0 15.0 0.00 0.55 0.00 86 1014.1
20260905024102 58 257 7.0 13.0 0.00 0.55 0.00 86 1014.1
20260905023558 58 265 9.0 13.0 0.00 0.55 0.00 86 1014.1
20260905023105 57 252 7.0 16.0 0.00 0.55 0.00 86 1014.1
20260905022557 57 242 7.0 16.0 0.00 0.55 0.00 86 1014.1
20260905022057 58 250 6.0 16.0 0.00 0.55 0.00 85 1014.1
20260905021605 58 231 7.0 12.0 0.00 0.55 0.00 85 1014.1
20260905021057 58 263 7.0 14.0 0.00 0.55 0.00 85 1014.1
20260905020557 58 271 7.0 14.0 0.00 0.55 0.00 85 1014.1
20260905015557 58 211 7.0 15.0 0.00 0.55 0.00 85 1014.0
20260905015059 58 243 6.0 15.0 0.00 0.55 0.00 85 1013.9
20260905014605 58 236 7.0 14.0 0.00 0.55 0.00 85 1013.8
20260905014101 58 240 8.0 15.0 0.00 0.55 0.00 85 1013.8
20260905013558 58 246 8.0 15.0 0.00 0.55 0.00 85 1013.8
20260905013059 58 209 7.0 15.0 0.00 0.55 0.00 85 1013.8
20260905012558 58 240 7.0 15.0 0.00 0.55 0.00 85 1013.8
20260905012058 58 252 7.0 15.0 0.00 0.55 0.00 85 1013.8
20260905011602 58 245 7.0 15.0 0.00 0.55 0.00 85 1013.7
20260905011057 58 244 7.0 13.0 0.00 0.55 0.00 86 1013.8
20260905010601 58 250 6.0 14.0 0.00 0.55 0.00 86 1013.7
20260905010107 58 271 7.0 14.0 0.00 0.55 0.00 85 1013.8
20260905005557 58 268 7.0 14.0 0.00 0.55 0.00 85 1013.7
20260905005058 58 242 6.0 14.0 0.00 0.55 0.00 85 1013.8
20260905004606 58 287 6.0 13.0 0.00 0.55 0.00 85 1013.8
20260905004059 58 257 8.0 14.0 0.00 0.55 0.00 85 1013.7
20260905003557 58 259 9.0 14.0 0.00 0.55 0.00 85 1013.8
20260905003115 58 244 8.0 13.0 0.00 0.55 0.00 85 1013.7
20260905002558 58 259 7.0 15.0 0.00 0.55 0.00 85 1013.8
20260905002058 58 246 8.0 15.0 0.00 0.55 0.00 85 1013.7
20260905001600 58 256 7.0 15.0 0.00 0.55 0.00 85 1013.7
20260905001057 58 236 7.0 15.0 0.00 0.55 0.00 85 1013.7
20260905000558 58 250 6.0 14.0 0.00 0.55 0.00 85 1013.6
20260905000110 58 275 7.0 14.0 0.00 0.55 0.00 85 1013.6
20260904235557 58 283 7.0 16.0 0.00 0.55 0.00 85 1013.5
20260904235057 59 254 8.0 16.0 0.00 0.55 0.00 85 1013.6
20260904234607 59 257 8.0 16.0 0.00 0.55 0.00 85 1013.3
20260904234057 59 268 7.0 14.0 0.00 0.55 0.00 85 1013.3
20260904233557 59 265 7.0 14.0 0.00 0.55 0.00 85 1013.4
20260904233104 59 279 8.0 15.0 0.00 0.55 0.00 85 1013.3
20260904232558 59 265 7.0 17.0 0.00 0.55 0.00 85 1013.3
20260904232057 59 269 6.0 17.0 0.00 0.55 0.00 85 1013.3
20260904231600 59 256 8.0 16.0 0.00 0.55 0.00 85 1013.3
20260904231101 59 270 8.0 20.0 0.00 0.55 0.00 85 1013.2
20260904230558 59 271 10.0 20.0 0.00 0.55 0.00 85 1013.2
20260904230104 59 274 7.0 18.0 0.00 0.55 0.00 85 1013.1
20260904225557 59 260 9.0 15.0 0.00 0.55 0.00 85 1013.1
20260904225057 59 265 9.0 16.0 0.00 0.55 0.00 85 1013.0
20260904224605 59 256 8.0 16.0 0.00 0.55 0.00 85 1012.9
20260904224057 59 267 6.0 15.0 0.00 0.55 0.00 86 1012.9
20260904223557 59 261 7.0 16.0 0.00 0.55 0.00 86 1012.8
20260904223109 59 254 7.0 16.0 0.00 0.55 0.00 85 1012.7
20260904222557 60 230 9.0 17.0 0.00 0.55 0.00 85 1012.7
20260904222100 60 261 8.0 17.0 0.00 0.55 0.00 85 1012.7
20260904221615 60 287 9.0 17.0 0.00 0.55 0.00 86 1012.5
20260904221058 60 277 10.0 17.0 0.00 0.55 0.00 86 1012.5
20260904220558 60 267 8.0 17.0 0.00 0.55 0.00 87 1012.5
20260904220108 60 262 10.0 17.0 0.00 0.55 0.00 87 1012.3
20260904215558 60 261 6.0 15.0 0.00 0.58 0.55 87 1012.2
20260904215057 60 281 7.0 15.0 0.00 0.58 0.55 88 1012.2
20260904214609 60 260 7.0 15.0 0.00 0.58 0.55 88 1012.1
20260904214057 60 317 8.0 15.0 0.00 0.58 0.55 88 1012.0
20260904213557 60 265 8.0 14.0 0.00 0.58 0.55 88 1011.9
20260904213101 60 256 8.0 15.0 0.00 0.58 0.55 89 1011.8
20260904212558 60 261 5.0 15.0 0.00 0.58 0.55 89 1011.7